When you browse on this site, cookies collect data to enhance your experience and personalize the content and advertising you see.
Visit our Privacy Policy to learn more. By continuing to use the site, you agree to this use of cookies and data.
  • Em Portugal
  • Lista de países
  • Para 7 dias
  • Temperatura da água
  • Mapas de satélite
  • Mapa do tempo
  • Widgets de tempo
  • user-avatar
    Iniciar Sessão

    Previsão horária em Kerman

    Hoje, 17 Julho, Quarta-feira

    Tempo Temperatura Precipitação Vento Pressão Humidade
    00:00 +23°C° 0 mm 2 m/s 601 mmHg 26%
    01:00 +21°C° 0 mm 2 m/s 601 mmHg 32%
    02:00 +22°C° 0 mm 1 m/s 600 mmHg 34%
    03:00 +21°C° 0 mm 1 m/s 600 mmHg 36%
    04:00 +21°C° 0 mm 1 m/s 600 mmHg 39%
    05:00 +23°C° 0 mm 1 m/s 601 mmHg 35%
    06:00 +25°C° 0 mm 1 m/s 602 mmHg 31%
    07:00 +27°C° 0 mm 1 m/s 604 mmHg 28%
    08:00 +29°C° 0 mm 1 m/s 604 mmHg 23%
    09:00 +31°C° 0 mm 1 m/s 605 mmHg 17%
    10:00 +34°C° 0 mm 2 m/s 606 mmHg 12%
    11:00 +35°C° 0 mm 2 m/s 606 mmHg 10%
    12:00 +37°C° 0 mm 2 m/s 606 mmHg 8%
    13:00 +38°C° 0 mm 3 m/s 606 mmHg 6%
    14:00 +38°C° 0 mm 3 m/s 606 mmHg 5%
    15:00 +40°C° 0 mm 4 m/s 606 mmHg 5%
    16:00 +40°C° 0 mm 4 m/s 605 mmHg 4%
    17:00 +37°C° 0 mm 4 m/s 605 mmHg 5%
    18:00 +36°C° 0 mm 5 m/s 604 mmHg 6%
    19:00 +34°C° 0 mm 5 m/s 604 mmHg 6%
    20:00 +32°C° 0 mm 4 m/s 603 mmHg 11%
    21:00 +28°C° 0 mm 3 m/s 603 mmHg 17%
    22:00 +26°C° 0 mm 2 m/s 602 mmHg 22%
    23:00 +25°C° 0 mm 2 m/s 602 mmHg 28%

    Amanhã, 18 Julho, Quinta-feira

    Tempo Temperatura Precipitação Vento Pressão Humidade
    00:00 +24°C° 0 mm 1 m/s 602 mmHg 34%
    01:00 +23°C° 0 mm 1 m/s 601 mmHg 40%
    02:00 +23°C° 0 mm 1 m/s 601 mmHg 41%
    03:00 +22°C° 0 mm 1 m/s 601 mmHg 42%
    04:00 +20°C° 0 mm 0 m/s 601 mmHg 42%
    05:00 +22°C° 0 mm 0 m/s 602 mmHg 37%
    06:00 +24°C° 0 mm 0 m/s 603 mmHg 31%
    07:00 +25°C° 0 mm 0 m/s 604 mmHg 25%
    08:00 +27°C° 0 mm 0 m/s 605 mmHg 21%
    09:00 +31°C° 0 mm 1 m/s 605 mmHg 17%
    10:00 +33°C° 0 mm 1 m/s 606 mmHg 13%
    11:00 +36°C° 0 mm 2 m/s 606 mmHg 11%
    12:00 +37°C° 0 mm 2 m/s 606 mmHg 9%
    13:00 +38°C° 0 mm 3 m/s 606 mmHg 7%
    14:00 +38°C° 0 mm 4 m/s 606 mmHg 6%
    15:00 +40°C° 0 mm 5 m/s 605 mmHg 6%
    16:00 +40°C° 0 mm 6 m/s 605 mmHg 5%
    17:00 +38°C° 0 mm 7 m/s 605 mmHg 5%
    18:00 +36°C° 0 mm 7 m/s 604 mmHg 6%
    19:00 +34°C° 0 mm 8 m/s 603 mmHg 6%
    20:00 +32°C° 0 mm 6 m/s 603 mmHg 7%
    21:00 +29°C° 0 mm 4 m/s 603 mmHg 8%
    22:00 +26°C° 0 mm 2 m/s 602 mmHg 9%
    23:00 +25°C° 0 mm 2 m/s 602 mmHg 13%

    Depois de amanhã, 19 Julho, Sexta-feira

    Tempo Temperatura Precipitação Vento Pressão Humidade
    00:00 +24°C° 0 mm 1 m/s 602 mmHg 16%
    01:00 +23°C° 0 mm 1 m/s 601 mmHg 19%
    02:00 +23°C° 0 mm 1 m/s 601 mmHg 22%
    03:00 +22°C° 0 mm 1 m/s 601 mmHg 25%
    04:00 +19°C° 0 mm 0 m/s 600 mmHg 29%
    05:00 +21°C° 0 mm 0 m/s 602 mmHg 26%
    06:00 +23°C° 0 mm 0 m/s 603 mmHg 23%
    07:00 +27°C° 0 mm 1 m/s 604 mmHg 21%
    08:00 +29°C° 0 mm 1 m/s 605 mmHg 17%
    09:00 +31°C° 0 mm 2 m/s 605 mmHg 14%
    10:00 +34°C° 0 mm 2 m/s 606 mmHg 11%
    11:00 +36°C° 0 mm 2 m/s 606 mmHg 9%
    12:00 +37°C° 0 mm 3 m/s 606 mmHg 7%
    13:00 +38°C° 0 mm 3 m/s 606 mmHg 6%
    14:00 +38°C° 0 mm 3 m/s 606 mmHg 5%
    15:00 +39°C° 0 mm 3 m/s 606 mmHg 5%
    16:00 +40°C° 0 mm 4 m/s 606 mmHg 5%
    17:00 +38°C° 0 mm 4 m/s 606 mmHg 5%
    18:00 +36°C° 0 mm 5 m/s 605 mmHg 6%
    19:00 +35°C° 0 mm 5 m/s 605 mmHg 6%
    20:00 +32°C° 0 mm 4 m/s 604 mmHg 8%
    21:00 +29°C° 0 mm 3 m/s 604 mmHg 9%
    22:00 +27°C° 0 mm 2 m/s 603 mmHg 11%
    23:00 +26°C° 0 mm 1 m/s 603 mmHg 13%

    20 Julho, Sábado

    Tempo Temperatura Precipitação Vento Pressão Humidade
    00:00 +25°C° 0 mm 1 m/s 602 mmHg 15%
    01:00 +21°C° 0 mm 0 m/s 602 mmHg 17%
    02:00 +23°C° 0 mm 1 m/s 602 mmHg 18%
    03:00 +22°C° 0 mm 1 m/s 602 mmHg 19%
    04:00 +22°C° 0 mm 1 m/s 602 mmHg 19%
    05:00 +24°C° 0 mm 1 m/s 603 mmHg 17%
    06:00 +26°C° 0 mm 1 m/s 604 mmHg 14%
    07:00 +28°C° 0 mm 1 m/s 606 mmHg 11%
    08:00 +30°C° 0 mm 2 m/s 606 mmHg 10%
    09:00 +32°C° 0 mm 2 m/s 607 mmHg 9%
    10:00 +35°C° 0 mm 3 m/s 608 mmHg 8%
    11:00 +36°C° 0 mm 4 m/s 608 mmHg 7%
    12:00 +37°C° 0 mm 4 m/s 608 mmHg 7%
    13:00 +40°C° 0 mm 5 m/s 608 mmHg 6%
    14:00 +40°C° 0 mm 6 m/s 608 mmHg 6%
    15:00 +40°C° 0 mm 7 m/s 608 mmHg 5%
    16:00 +41°C° 0 mm 8 m/s 607 mmHg 5%
    17:00 +39°C° 0 mm 8 m/s 607 mmHg 6%
    18:00 +37°C° 0 mm 8 m/s 606 mmHg 7%
    19:00 +34°C° 0 mm 8 m/s 606 mmHg 8%
    20:00 +32°C° 0 mm 7 m/s 606 mmHg 9%
    21:00 +30°C° 0 mm 6 m/s 606 mmHg 9%
    22:00 +28°C° 0 mm 5 m/s 605 mmHg 10%
    23:00 +27°C° 0 mm 5 m/s 605 mmHg 12%

    21 Julho, Domingo

    Tempo Temperatura Precipitação Vento Pressão Humidade
    00:00 +26°C° 0 mm 4 m/s 605 mmHg 13%
    01:00 +25°C° 0 mm 3 m/s 604 mmHg 15%
    02:00 +24°C° 0 mm 3 m/s 604 mmHg 17%
    03:00 +22°C° 0 mm 3 m/s 604 mmHg 18%
    04:00 +22°C° 0 mm 3 m/s 604 mmHg 20%
    05:00 +24°C° 0 mm 3 m/s 604 mmHg 19%
    06:00 +25°C° 0 mm 2 m/s 605 mmHg 19%
    07:00 +27°C° 0 mm 2 m/s 606 mmHg 18%
    08:00 +29°C° 0 mm 4 m/s 607 mmHg 16%
    09:00 +32°C° 0 mm 5 m/s 607 mmHg 14%
    10:00 +34°C° 0 mm 7 m/s 608 mmHg 12%
    11:00 +35°C° 0 mm 8 m/s 608 mmHg 11%
    12:00 +37°C° 0 mm 9 m/s 608 mmHg 11%
    13:00 +38°C° 0 mm 10 m/s 608 mmHg 10%
    14:00 +38°C° 0 mm 10 m/s 607 mmHg 10%
    15:00 +38°C° 0 mm 10 m/s 607 mmHg 10%
    16:00 +39°C° 0 mm 10 m/s 607 mmHg 10%
    17:00 +37°C° 0 mm 10 m/s 606 mmHg 11%
    18:00 +35°C° 0 mm 9 m/s 606 mmHg 12%
    19:00 +34°C° 0 mm 8 m/s 606 mmHg 14%
    20:00 +32°C° 0 mm 8 m/s 606 mmHg 17%
    21:00 +31°C° 0 mm 8 m/s 606 mmHg 19%
    22:00 +28°C° 0 mm 8 m/s 606 mmHg 22%
    23:00 +27°C° 0 mm 7 m/s 605 mmHg 26%

    22 Julho, Segunda-feira

    Tempo Temperatura Precipitação Vento Pressão Humidade
    00:00 +26°C° 0 mm 5 m/s 605 mmHg 29%
    01:00 +25°C° 0 mm 4 m/s 604 mmHg 33%
    02:00 +24°C° 0 mm 3 m/s 604 mmHg 37%
    03:00 +23°C° 0 mm 2 m/s 603 mmHg 40%
    04:00 +21°C° 0 mm 1 m/s 603 mmHg 44%
    05:00 +23°C° 0 mm 1 m/s 604 mmHg 42%
    06:00 +24°C° 0 mm 2 m/s 604 mmHg 39%
    07:00 +25°C° 0 mm 2 m/s 605 mmHg 37%
    08:00 +27°C° 0 mm 3 m/s 606 mmHg 31%
    09:00 +29°C° 0 mm 4 m/s 606 mmHg 26%
    10:00 +32°C° 0 mm 5 m/s 607 mmHg 20%
    11:00 +34°C° 0 mm 7 m/s 607 mmHg 17%
    12:00 +35°C° 0 mm 8 m/s 607 mmHg 14%
    13:00 +38°C° 0 mm 9 m/s 607 mmHg 10%
    14:00 +38°C° 0 mm 9 m/s 606 mmHg 10%
    15:00 +38°C° 0 mm 9 m/s 606 mmHg 10%
    16:00 +38°C° 0 mm 9 m/s 605 mmHg 10%
    17:00 +35°C° 0 mm 9 m/s 605 mmHg 10%
    18:00 +34°C° 0 mm 8 m/s 605 mmHg 11%
    19:00 +33°C° 0 mm 7 m/s 604 mmHg 12%
    20:00 +29°C° 0 mm 6 m/s 604 mmHg 14%
    21:00 +27°C° 0 mm 4 m/s 603 mmHg 16%
    22:00 +25°C° 0 mm 2 m/s 603 mmHg 18%
    23:00 +24°C° 0 mm 2 m/s 602 mmHg 19%
    Mostrar mais